Powrót do katalogu

THORAD AGENA D DEB

AktywnyLEO
NORAD 42554·DEBRIS·🇺🇸 United States

Wystrzelony Apr 8, 1970 z Vandenberg Space Force Base

Loading…

Następne Przeloty (najbliższe 24 godziny)

TLE

Starzejące sięSource: Space-Track

Epoka: Sep 10, 2026, 06:52 UTC

1 42554U 70025TL  26253.28611343  .00000524  00000-0  54070-3 0  9990
2 42554 100.0712  66.2267 0040234 190.7586 169.2707 13.80944403597651

Śledź THORAD AGENA D DEB w czasie rzeczywistym z AllMySat

Download on the App Store